This demonstration page uses our WeatherBlox Daily Observations layout. Learn more.

39.92423, -83.80882

Hourly Observations for June 30, 2017

Temp ( °F °C ) Dew Point ( °F °C ) Humidity (%) Winds ( mph kmh ) Pressure ( in mb ) Visibility ( mi km ) Precip ( " mm )
12:56 am 00:56 Clear 75 23.9 68 20 79 79 SSW 8 13 29.93 1014 10 16.0934 0 0
1:56 am 01:56 Mostly Cloudy 75 23.9 68 20 79 79 SSW 8 13 29.93 1014 10 16.0934 0 0
2:56 am 02:56 Mostly Cloudy 74 23.3 68 20 82 82 SSW 12 19 29.93 1014 10 16.0934 0 0
3:31 am 03:31 Mostly Cloudy 73 23 68 20 83 83 SSW 10 17 29.91 1013 10 16.0934 0 0
3:56 am 03:56 Mostly Cloudy 74 23.3 68 20 82 82 SSW 9 15 29.92 1013 10 16.0934 0 0
4:34 am 04:34 Mostly Cloudy 73 23 68 20 83 83 SSW 9 15 29.91 1013 10 16.0934 0 0
4:56 am 04:56 Mostly Cloudy 72 22.2 68 20 87 87 SSW 9 15 29.92 1013 10 16.0934 0 0
5:56 am 05:56 Cloudy 72 22.2 68 20 87 87 SW 10 17 29.93 1014 10 16.0934 0 0
6:56 am 06:56 Cloudy 72 22.2 68 20 87 87 SW 10 17 29.95 1014 10 16.0934 0 0
7:28 am 07:28 Cloudy 72 22 68 20 88 88 SW 9 15 29.94 1014 10 16.0934 0.01 0.254
7:56 am 07:56 Cloudy 72 22.2 69 20.6 91 91 SSW 10 17 29.96 1015 10 16.0934 0.01 0.254
8:56 am 08:56 Cloudy 72 22.2 69 20.6 91 91 SSW 8 13 29.96 1015 10 16.0934 0 0
9:56 am 09:56 Cloudy 73 22.8 69 20.6 87 87 SW 7 11 29.96 1015 10 16.0934 0 0
10:56 am 10:56 Cloudy 74 23.3 70 21.1 88 88 SW 8 13 29.96 1015 10 16.0934 0 0
11:56 am 11:56 Cloudy 74 23.3 70 21.1 88 88 SSW 7 11 29.96 1015 10 16.0934 0 0
12:49 pm 12:49 Cloudy 77 25 70 21 79 79 SSW 10 17 29.91 1013 10 16.0934 0 0
12:56 pm 12:56 Cloudy 77 25 70 21.1 79 79 SSW 8 13 29.95 1014 10 16.0934 0 0
1:56 pm 13:56 Cloudy 79 26.1 71 21.7 77 77 SSW 6 9 29.95 1014 10 16.0934 0 0
2:54 pm 14:54 Mostly Cloudy 81 27 72 22 74 74 SSW 8 13 29.88 1012 10 16.0934 0 0
2:56 pm 14:56 Mostly Cloudy 80 26.7 71 21.7 74 74 S 10 17 29.93 1013 10 16.0934 0 0
3:04 pm 15:04 Mostly Cloudy 81 27 72 22 74 74 SSW 8 13 29.88 1012 10 16.0934 0 0
3:12 pm 15:12 Mostly Cloudy 81 27 70 21 70 70 SSW 10 17 29.88 1012 10 16.0934 0 0
3:56 pm 15:56 Partly Cloudy 82 27.8 70 21.1 67 67 S 9 15 29.89 1012 10 16.0934 0 0
4:06 pm 16:06 Mostly Cloudy 82 28 72 22 70 70 SW 13 20 29.85 1011 10 16.0934 0 0
4:21 pm 16:21 Cloudy 82 28 72 22 70 70 S 12 19 29.85 1011 10 16.0934 0 0
4:56 pm 16:56 Mostly Cloudy 80 26.7 70 21.1 71 71 SSW 9 15 29.89 1012 10 16.0934 0 0
5:56 pm 17:56 Mostly Cloudy 79 26.1 70 21.1 74 74 SSW 10 17 29.88 1012 10 16.0934 0 0.0254
6:56 pm 18:56 Sunny 80 26.7 71 21.7 74 74 S 8 13 29.86 1011 10 16.0934 0 0
7:56 pm 19:56 Sunny 79 26.1 72 22.2 79 79 Calm 29.87 1012 10 16.0934 0 0
8:56 pm 20:56 Sunny 77 25 72 22.2 85 85 S 3 6 29.86 1011 10 16.0934 0 0
9:56 pm 21:56 Cloudy 75 23.9 71 21.7 88 88 Calm 29.88 1012 10 16.0934 0 0
10:48 pm 22:48 Cloudy with Nearby Thunderstorms 72 22 66 19 83 83 NE 9 15 29.85 1011 10 16.0934 0 0
10:56 pm 22:56 Cloudy with Nearby Thunderstorms 71 21.7 67 19.4 87 87 ENE 10 17 29.86 1011 10 16.0934 0 0
11:03 pm 23:03 Cloudy 72 22 66 19 83 83 ENE 13 20 29.85 1011 10 16.0934 0 0
11:18 pm 23:18 Cloudy with Heavy Thunderstorms 72 22 66 19 83 83 WSW 10 17 29.88 1012 7 11.26538 0.04 1.016
11:27 pm 23:27 Cloudy with Heavy Thunderstorms 70 21 68 20 94 94 WNW 9 15 29.88 1012 4 6.43736 0.07 1.778
11:34 pm 23:34 Cloudy with Nearby Thunderstorms 70 21 68 20 94 94 WNW 3 6 29.88 1012 7 11.26538 0.08 2.032
11:56 pm 23:56 Cloudy with Heavy Rain 69 20.6 68 20 96 96 Calm 29.9 1013 10 16.0934 0.11 2.794

Powered by AerisWeather